KSUNKPUW

Guest
Details From KSUN - FRIEDMAN MEM
To KPUW - Pullman Moscow Rgnl
Flight Number -
Tags generated
Created
Modified
Stats Distance 256 nm / 474 km
Max Altitude 31,600 ft / 9,632 m
Waypoints 4
Social Downloads 0
Likes 0
Share VATSIM

Download

Looking for another format? Having issues loading an existing format? Contact us
Advertisement - Login to hide

Notes

Basic altitude profile: - Ascent Rate: 2500ft/min - Ascent Speed: 250kts - Cruise Altitude: 35000ft - Cruise Speed: 420kts - Descent Rate: 1500ft/min - Descent Speed: 250kts Options: - Use NATs: yes - Use PACOTS: yes - Use low airways: yes - Use high airways: yes

Route

KSUN LKT J52 DOXIE KPUW

ID Type Via Altitude Latitude Longitude Leg Dist Tot Dist Heading (true) Name
O KSUN APT - 0 ft / 0 m 43.50445˚ -114.29621˚ - 0 nm - FRIEDMAN MEM
LKT VOR - 31,600 ft / 9,632 m 45.02131˚ -114.08425˚ 91 nm 91 nm 6° / 6° SALMON VOR-DME
DOXIE FIX J52 (AWY-HI) 20,800 ft / 6,340 m 45.83895˚ -115.17136˚ 67 nm 158 nm 317° / 317° -
O KPUW APT - 0 ft / 0 m 46.74386˚ -117.10959˚ 97 nm 255 nm 305° / 303° Pullman Moscow Rgnl

Altitude Profile

Advertisement - Login to hide

Weather


0- 5 10 15 20 25 30 35+ Temperature / ° C

Clouds and Precipitation
Forecast for 2018-05-23 18:00 UTC. Updated 4 hours ago

Ground ~20,000 ft ~40,000 ft Winds

KSUN

Details ICAO KSUN (SUN)
Name FRIEDMAN MEM
Region United States
Timezone America/Boise (UTC-6.0)
Stats Elevation 5,320 ft / 1,622 m (AMSL)
Location 43.504452° -114.296209°
Runways 1
Magnetic Variation 12.685° E

METAR

KSUN 231953Z 35007KT 7SM -TSRA SCT010 BKN050CB OVC070 12/09 A2998 RMK TSB28 TS OVHD MOV SE OCNL LTG ICCCCG

Decode

TAF

KSUN 231722Z 2318/2424 14006KT P6SM -SHRA VCTS BKN040CB BKN120 FM232100 25008KT P6SM -SHRA VCTS BKN050CB BKN120 FM240100 31006KT P6SM BKN050 BKN120 FM241800 14006KT P6SM VCTS BKN050CB BKN110

Decode

Departure Runways

ID Width Length Bearing (true) Bearing (mag) Surface Threshold Offset Overrun Length
13 100 ft / 30 m 6,949 ft / 2,118 m 144.87° 132.18° Asphalt 1,501 ft / 458 m 0 ft / 0 m
31 100 ft / 30 m 6,949 ft / 2,118 m 324.88° 312.19° Asphalt 0 ft / 0 m 0 ft / 0 m

KPUW

Details ICAO KPUW (PUW)
Name Pullman Moscow Rgnl
Region United States
Timezone America/Los_Angeles (UTC-7.0)
Stats Elevation 2,556 ft / 779 m (AMSL)
Location 46.743856° -117.109587°
Runways 1
Magnetic Variation 14.217° E

METAR

KPUW 231953Z AUTO 06005KT 10SM OVC100 21/13 A2980 RMK AO2 SLP081 T02110133

Decode

TAF

KPUW 231741Z 2318/2418 09010KT P6SM SCT080 BKN100 FM232100 11007KT P6SM VCTS SCT050CB BKN100 FM232300 25007KT P6SM SCT040 BKN150 TEMPO 2323/2403 5SM TSRA BKN040CB FM240300 17003KT P6SM VCSH SCT080 BKN120 FM240700 23005KT P6SM FEW100 SCT150

Decode

Destination Runways

ID Width Length Bearing (true) Bearing (mag) Surface Threshold Offset Overrun Length
05 100 ft / 30 m 6,714 ft / 2,046 m 70.05° 55.83° Asphalt 290 ft / 88 m 0 ft / 0 m
23 100 ft / 30 m 6,714 ft / 2,046 m 250.07° 235.85° Asphalt 801 ft / 244 m 0 ft / 0 m